Location: Robert Brownlee Observatory
(34.2308°N, 117.2089°W)
Time: 00:02:27
(UTC-07:00)

Cosmos 1943 - Visible Passes

Search period start: 26 September 2016 00:00
Search period end: 06 October 2016 00:00
Orbit: 835 x 848 km, 71.0° (Epoch: 25 September)

Date Brightness Start Highest point End Pass type
(mag) Time Alt. Az. Time Alt. Az. Time Alt. Az.
26 Sep 3.8 20:02:57 10° SSE 20:14:49 - NE 20:07:18 33° ESE visible
26 Sep 5.3 21:47:10 10° WSW 21:56:25 11° N 21:56:45 10° N visible
27 Sep 3.8 19:48:05 10° SSE 19:53:00 32° ESE 19:57:56 10° NE visible
27 Sep 4.9 21:32:06 10° WSW 21:36:58 29° WNW 21:41:50 10° N visible
28 Sep 3.9 19:33:13 10° SSE 19:38:03 30° ESE 19:42:53 10° NE visible
28 Sep 4.8 21:17:01 10° WSW 21:21:58 31° WNW 21:26:56 10° N visible
29 Sep 3.8 06:13:57 10° NNW 06:19:33 64° ENE 06:25:07 10° SSE visible
29 Sep 4.0 19:18:23 10° SSE 19:23:06 28° ESE 19:27:51 10° NE visible
29 Sep 4.8 21:01:58 10° SW 21:06:59 33° WNW 21:12:02 10° N visible
30 Sep 3.8 05:59:00 10° NNW 06:04:34 61° ENE 06:10:07 10° SSE visible
30 Sep 4.1 19:03:32 10° SSE 19:08:10 27° ESE 19:12:48 10° NE visible
30 Sep 4.7 20:46:54 10° SW 20:52:00 34° WNW 20:57:06 10° N visible
01 Oct 3.9 05:44:04 10° NNW 05:49:36 57° ENE 05:55:07 10° SE visible
01 Oct 4.1 18:48:42 10° SSE 18:53:13 25° ESE 18:57:44 10° NE visible
01 Oct 4.6 20:31:51 10° SW 20:37:01 36° WNW 20:42:11 10° N visible
02 Oct 4.0 05:29:07 10° N 05:34:37 54° ENE 05:40:07 10° SE visible
02 Oct 4.6 20:16:49 10° SW 20:22:02 38° WNW 20:27:15 10° N visible
03 Oct 4.1 05:14:11 10° N 05:19:39 51° ENE 05:25:06 10° SE visible
03 Oct 4.5 20:01:46 10° SW 20:07:03 40° WNW 20:12:20 10° N visible
04 Oct 4.1 04:59:15 10° N 05:04:40 48° ENE 05:10:05 10° SE visible
04 Oct 4.4 19:46:45 10° SW 19:52:04 43° WNW 19:57:24 10° N visible
05 Oct 4.2 04:44:18 10° N 04:49:42 45° ENE 04:55:04 10° SE visible
05 Oct 4.3 19:31:43 10° SW 19:37:05 45° WNW 19:42:28 10° N visible
